FW9420 Weather Reports


Display with metric or nautical units.
time (UTC)temp
F
wind
direction
speed
MPH
gust
MPH
rain 1hr
in
rain 24hr
in
rain mn
in
humidity
%
barometer
mb
20260906043815 61 287 3.0 5.0 0.00 0.00 0.00 74 1024.9
20260906043328 61 287 3.0 5.0 0.00 0.00 0.00 74 1024.8
20260906042838 61 287 2.0 4.0 0.00 0.00 0.00 74 1024.8
20260906042325 61 287 1.0 3.0 0.00 0.00 0.00 73 1024.8
20260906041813 61 287 2.0 3.0 0.00 0.00 0.00 73 1024.8
20260906041342 61 287 2.0 3.0 0.00 0.00 0.00 73 1024.7
20260906040830 61 287 2.0 4.0 0.00 0.00 0.00 73 1024.7
20260906040340 61 287 3.0 4.0 0.00 0.00 0.00 72 1024.8
20260906035828 61 287 2.0 3.0 0.00 0.00 0.00 72 1024.7
20260906035316 61 287 1.0 3.0 0.00 0.00 0.00 72 1024.7
20260906034824 62 287 1.0 4.0 0.00 0.00 0.00 71 1024.8
20260906034333 62 287 2.0 4.0 0.00 0.00 0.00 71 1024.6
20260906033818 62 287 2.0 4.0 0.00 0.00 0.00 70 1024.6
20260906033326 63 287 0.0 1.0 0.00 0.00 0.00 70 1024.6
20260906032818 63 287 0.0 2.0 0.00 0.00 0.00 71 1024.6
20260906032327 63 287 1.0 3.0 0.00 0.00 0.00 71 1024.5
20260906031815 63 287 2.0 3.0 0.00 0.00 0.00 70 1024.4
20260906031323 63 287 2.0 3.0 0.00 0.00 0.00 70 1024.3
20260906030812 63 287 2.0 3.0 0.00 0.00 0.00 70 1024.4
20260906030319 63 287 1.0 4.0 0.00 0.00 0.00 70 1024.4
20260906025827 63 287 3.0 4.0 0.00 0.00 0.00 70 1024.3
20260906025314 63 287 3.0 4.0 0.00 0.00 0.00 70 1024.4
20260906024822 63 287 3.0 4.0 0.00 0.00 0.00 70 1024.3
20260906024311 63 287 2.0 4.0 0.00 0.00 0.00 70 1024.2
20260906023819 63 287 2.0 4.0 0.00 0.00 0.00 70 1024.3
20260906023313 63 287 3.0 3.0 0.00 0.00 0.00 70 1024.3
20260906022821 63 287 2.0 5.0 0.00 0.00 0.00 70 1024.3
20260906022310 63 287 2.0 5.0 0.00 0.00 0.00 71 1024.4
20260906021818 63 287 2.0 4.0 0.00 0.00 0.00 70 1024.4
20260906021327 63 287 2.0 4.0 0.00 0.00 0.00 70 1024.5
20260906020815 64 287 3.0 5.0 0.00 0.00 0.00 70 1024.4
20260906020324 64 287 2.0 5.0 0.00 0.00 0.00 70 1024.3
20260906015813 64 287 2.0 4.0 0.00 0.00 0.00 69 1024.5
20260906015321 64 287 2.0 4.0 0.00 0.00 0.00 69 1024.4
20260906014814 64 287 2.0 3.0 0.00 0.00 0.00 69 1024.4
20260906014343 65 287 1.0 3.0 0.00 0.00 0.00 69 1024.3
20260906013831 65 287 1.0 2.0 0.00 0.00 0.00 68 1024.4
20260906013319 65 287 0.0 1.0 0.00 0.00 0.00 68 1024.4
20260906012827 65 287 0.0 2.0 0.00 0.00 0.00 68 1024.4
20260906012315 65 287 0.0 3.0 0.00 0.00 0.00 68 1024.5
20260906011825 65 287 2.0 3.0 0.00 0.00 0.00 68 1024.5
20260906011313 65 287 2.0 3.0 0.00 0.00 0.00 68 1024.4
20260906010822 66 287 1.0 3.0 0.00 0.00 0.00 67 1024.5
20260906010310 66 287 1.0 2.0 0.00 0.00 0.00 67 1024.5
20260906005839 66 287 1.0 3.0 0.00 0.00 0.00 66 1024.4
20260906005310 66 287 1.0 3.0 0.00 0.00 0.00 66 1024.4
20260906004818 66 287 1.0 2.0 0.00 0.00 0.00 66 1024.4
20260906004326 66 287 2.0 2.0 0.00 0.00 0.00 66 1024.4
20260906003835 66 287 1.0 2.0 0.00 0.00 0.00 66 1024.4
20260906003321 66 287 0.0 2.0 0.00 0.00 0.00 66 1024.4
20260906002810 66 287 1.0 3.0 0.00 0.00 0.00 66 1024.2
20260906002318 66 287 1.0 3.0 0.00 0.00 0.00 66 1024.3
20260906001827 66 287 1.0 3.0 0.00 0.00 0.00 67 1024.3
20260906001315 66 287 1.0 5.0 0.00 0.00 0.00 67 1024.4
20260906000823 66 287 3.0 5.0 0.00 0.00 0.00 67 1024.3
20260906000312 66 287 3.0 4.0 0.00 0.00 0.00 67 1024.3
20260905235820 66 287 2.0 5.0 0.00 0.00 0.00 66 1024.3
20260905235312 67 287 3.0 7.0 0.00 0.00 0.00 66 1024.3
20260905234822 67 287 4.0 7.0 0.00 0.00 0.00 66 1024.4
20260905234332 67 287 3.0 4.0 0.00 0.00 0.00 66 1024.2
20260905233839 67 287 3.0 4.0 0.00 0.00 0.00 65 1024.2
20260905233327 67 287 2.0 3.0 0.00 0.00 0.00 64 1024.2
20260905232815 67 287 2.0 3.0 0.00 0.00 0.00 64 1024.2
20260905232323 67 287 2.0 3.0 0.00 0.00 0.00 63 1024.2
20260905231812 68 287 1.0 3.0 0.00 0.00 0.00 63 1024.2
20260905231321 68 287 1.0 2.0 0.00 0.00 0.00 63 1024.2
20260905230828 68 287 1.0 2.0 0.00 0.00 0.00 63 1024.2
20260905230316 68 287 1.0 4.0 0.00 0.00 0.00 63 1024.2
20260905225809 68 287 2.0 4.0 0.00 0.00 0.00 62 1024.2
20260905225318 69 287 3.0 4.0 0.00 0.00 0.00 61 1024.3
20260905224827 69 287 2.0 4.0 0.00 0.00 0.00 61 1024.2
20260905224315 70 287 2.0 5.0 0.00 0.00 0.00 61 1024.2
20260905223824 70 287 3.0 8.0 0.00 0.00 0.00 60 1024.3
20260905223312 70 287 4.0 8.0 0.00 0.00 0.00 60 1024.2
20260905222821 70 287 6.0 8.0 0.00 0.00 0.00 60 1024.3
20260905222309 70 286 4.0 8.0 0.00 0.00 0.00 60 1024.3
20260905221817 70 286 6.0 8.0 0.00 0.00 0.00 60 1024.2
20260905221346 70 286 5.0 8.0 0.00 0.00 0.00 60 1024.2
20260905220813 71 286 5.0 8.0 0.00 0.00 0.00 59 1024.2
20260905220325 71 286 4.0 9.0 0.00 0.00 0.00 58 1024.1
20260905215813 71 286 3.0 9.0 0.00 0.00 0.00 57 1024.0
20260905215322 72 285 5.0 10.0 0.00 0.00 0.00 56 1024.1
20260905214809 72 284 4.0 10.0 0.00 0.00 0.00 56 1024.1
20260905214317 72 284 4.0 8.0 0.00 0.00 0.00 56 1024.1
20260905213845 73 284 3.0 8.0 0.00 0.00 0.00 55 1024.1
20260905213313 73 284 5.0 8.0 0.00 0.00 0.00 55 1024.1
20260905212821 73 284 4.0 8.0 0.00 0.00 0.00 55 1024.1
20260905212309 73 284 5.0 8.0 0.00 0.00 0.00 55 1024.0
20260905211818 73 284 4.0 7.0 0.00 0.00 0.00 55 1024.0
20260905211327 73 284 2.0 7.0 0.00 0.00 0.00 55 1024.0
20260905210815 74 284 4.0 8.0 0.00 0.00 0.00 55 1024.0
20260905210345 74 284 3.0 8.0 0.00 0.00 0.00 54 1023.9
20260905205816 74 284 4.0 9.0 0.00 0.00 0.00 54 1023.9
20260905205346 74 283 4.0 9.0 0.00 0.00 0.00 54 1023.9
20260905204835 74 281 5.0 9.0 0.00 0.00 0.00 54 1023.8
20260905204323 74 281 5.0 9.0 0.00 0.00 0.00 54 1023.8
20260905203811 74 280 4.0 9.0 0.00 0.00 0.00 54 1023.7
20260905203319 74 280 5.0 9.0 0.00 0.00 0.00 54 1023.8
20260905202827 74 279 5.0 10.0 0.00 0.00 0.00 53 1023.7
20260905202316 74 278 7.0 10.0 0.00 0.00 0.00 52 1023.7
20260905201825 75 278 6.0 10.0 0.00 0.00 0.00 51 1023.8
20260905201334 75 278 7.0 10.0 0.00 0.00 0.00 51 1023.8
20260905200841 76 277 6.0 11.0 0.00 0.00 0.00 51 1023.7
20260905200328 76 277 7.0 12.0 0.00 0.00 0.00 50 1023.7
20260905195820 77 276 7.0 12.0 0.00 0.00 0.00 49 1023.7
20260905195328 77 283 7.0 12.0 0.00 0.00 0.00 49 1023.7
20260905194817 77 283 8.0 12.0 0.00 0.00 0.00 48 1023.7
20260905194326 78 274 7.0 12.0 0.00 0.00 0.00 47 1023.7
20260905193835 78 297 6.0 10.0 0.00 0.00 0.00 47 1023.6
20260905193322 79 304 7.0 10.0 0.00 0.00 0.00 46 1023.6
20260905192852 79 306 7.0 10.0 0.00 0.00 0.00 46 1023.5
20260905192316 79 306 4.0 9.0 0.00 0.00 0.00 45 1023.5
20260905191825 79 306 7.0 10.0 0.00 0.00 0.00 45 1023.4
20260905191313 79 308 7.0 10.0 0.00 0.00 0.00 46 1023.3
20260905190821 79 309 5.0 11.0 0.00 0.00 0.00 45 1023.3
20260905190315 79 308 6.0 11.0 0.00 0.00 0.00 45 1023.3
20260905185824 79 309 6.0 10.0 0.00 0.00 0.00 45 1023.2
20260905185312 79 306 6.0 13.0 0.00 0.00 0.00 45 1023.1
20260905184820 79 306 8.0 13.0 0.00 0.00 0.00 45 1023.1
20260905184309 79 317 7.0 11.0 0.00 0.00 0.00 45 1023.1
20260905183817 80 282 5.0 10.0 0.00 0.00 0.00 44 1022.9
20260905183326 80 282 6.0 11.0 0.00 0.00 0.00 43 1023.1
20260905182815 80 280 6.0 11.0 0.00 0.00 0.00 43 1023.1
20260905182323 80 277 6.0 11.0 0.00 0.00 0.00 42 1023.1
20260905181831 80 279 6.0 10.0 0.00 0.00 0.00 42 1023.0
20260905181319 81 278 5.0 9.0 0.00 0.00 0.00 41 1022.9
20260905180811 81 275 6.0 9.0 0.00 0.00 0.00 40 1022.9
20260905180320 81 275 6.0 9.0 0.00 0.00 0.00 40 1022.8
20260905175848 82 273 5.0 10.0 0.00 0.00 0.00 39 1022.7
20260905175316 82 270 6.0 8.0 0.00 0.00 0.00 38 1022.8
20260905174825 82 270 5.0 9.0 0.00 0.00 0.00 38 1022.7
20260905174335 83 269 5.0 9.0 0.00 0.00 0.00 37 1022.6
20260905173822 83 269 6.0 9.0 0.00 0.00 0.00 37 1022.6
20260905173311 84 265 5.0 11.0 0.00 0.00 0.00 36 1022.4
20260905172820 84 267 6.0 10.0 0.00 0.00 0.00 35 1022.4
20260905172328 85 259 5.0 9.0 0.00 0.00 0.00 35 1022.4
20260905171821 85 259 3.0 7.0 0.00 0.00 0.00 34 1022.4
20260905171310 85 259 3.0 7.0 0.00 0.00 0.00 33 1022.4
20260905170818 86 261 5.0 11.0 0.00 0.00 0.00 32 1022.4
20260905170348 86 263 7.0 11.0 0.00 0.00 0.00 32 1022.5
20260905165815 86 255 5.0 10.0 0.00 0.00 0.00 31 1022.4
20260905165324 86 254 5.0 10.0 0.00 0.00 0.00 31 1022.4
20260905164813 87 258 6.0 12.0 0.00 0.00 0.00 30 1022.4
20260905164322 87 259 6.0 13.0 0.00 0.00 0.00 30 1022.4
20260905163810 87 257 6.0 14.0 0.00 0.00 0.00 29 1022.4
20260905163340 87 265 8.0 14.0 0.00 0.00 0.00 28 1022.4
20260905162827 87 274 7.0 14.0 0.00 0.00 0.00 28 1022.5
20260905162336 87 269 5.0 13.0 0.00 0.00 0.00 28 1022.5
20260905161827 88 272 8.0 15.0 0.00 0.00 0.00 27 1022.5
20260905161315 88 271 7.0 18.0 0.00 0.00 0.00 27 1022.4
20260905160823 88 274 9.0 18.0 0.00 0.00 0.00 27 1022.3
20260905160313 88 275 8.0 16.0 0.00 0.00 0.00 26 1022.3
20260905155821 88 265 8.0 17.0 0.00 0.00 0.00 26 1022.3
20260905155309 88 284 9.0 17.0 0.00 0.00 0.00 26 1022.3
20260905154817 89 265 7.0 14.0 0.00 0.00 0.00 26 1022.4
20260905154347 89 267 5.0 18.0 0.00 0.00 0.00 26 1022.3
20260905153814 89 293 9.0 18.0 0.00 0.00 0.00 26 1022.2
20260905153321 89 277 11.0 17.0 0.00 0.00 0.00 25 1022.2
20260905152814 89 261 10.0 16.0 0.00 0.00 0.00 25 1022.2
20260905152323 89 263 7.0 17.0 0.00 0.00 0.00 25 1022.2
20260905151811 89 266 12.0 17.0 0.00 0.00 0.00 25 1022.2
20260905151320 89 284 10.0 17.0 0.00 0.00 0.00 25 1022.0
20260905150849 90 248 6.0 16.0 0.00 0.00 0.00 24 1022.1
20260905150318 90 275 11.0 17.0 0.00 0.00 0.00 24 1022.2
20260905145826 90 234 9.0 17.0 0.00 0.00 0.00 24 1022.2
20260905145334 90 235 9.0 15.0 0.00 0.00 0.00 24 1022.2
20260905144821 90 245 6.0 18.0 0.00 0.00 0.00 24 1022.3
20260905144310 90 243 12.0 18.0 0.00 0.00 0.00 23 1022.3
20260905143839 90 246 8.0 16.0 0.00 0.00 0.00 24 1022.3
20260905143311 90 242 7.0 19.0 0.00 0.00 0.00 24 1022.3
20260905142820 90 269 11.0 19.0 0.00 0.00 0.00 24 1022.3
20260905142348 90 281 12.0 19.0 0.00 0.00 0.00 24 1022.3
20260905141815 91 258 10.0 16.0 0.00 0.00 0.00 25 1022.3
20260905141323 91 242 7.0 16.0 0.00 0.00 0.00 24 1022.3
20260905140811 91 284 11.0 17.0 0.00 0.00 0.00 24 1022.3
20260905140320 92 270 11.0 17.0 0.00 0.00 0.00 25 1022.3
20260905135828 92 317 7.0 15.0 0.00 0.00 0.00 25 1022.2
20260905135317 91 271 8.0 19.0 0.00 0.00 0.00 25 1022.3
20260905134825 92 238 11.0 19.0 0.00 0.00 0.00 25 1022.4
20260905134313 91 286 10.0 19.0 0.00 0.00 0.00 25 1022.3
20260905133825 91 261 10.0 20.0 0.00 0.00 0.00 25 1022.2
20260905133314 91 290 9.0 20.0 0.00 0.00 0.00 26 1022.2
20260905132822 92 268 9.0 18.0 0.00 0.00 0.00 26 1022.3
20260905132310 92 275 8.0 18.0 0.00 0.00 0.00 25 1022.4
20260905131840 91 254 6.0 18.0 0.00 0.00 0.00 26 1022.3
20260905131327 91 279 9.0 18.0 0.00 0.00 0.00 26 1022.4
20260905130815 91 225 10.0 18.0 0.00 0.00 0.00 29 1022.3
20260905130324 91 229 11.0 18.0 0.00 0.00 0.00 28 1022.4
20260905125833 92 242 9.0 15.0 0.00 0.00 0.00 28 1022.4
20260905125321 92 198 5.0 17.0 0.00 0.00 0.00 28 1022.6
20260905124810 92 248 10.0 17.0 0.00 0.00 0.00 28 1022.6
20260905124323 92 239 3.0 16.0 0.00 0.00 0.00 28 1022.6
20260905123811 92 217 5.0 17.0 0.00 0.00 0.00 29 1022.5
20260905123318 92 237 7.0 13.0 0.00 0.00 0.00 28 1022.5
20260905122827 91 223 6.0 16.0 0.00 0.00 0.00 28 1022.6
20260905122315 91 203 8.0 17.0 0.00 0.00 0.00 28 1022.7
20260905121822 91 238 9.0 17.0 0.00 0.00 0.00 29 1022.8
20260905121311 91 211 10.0 19.0 0.00 0.00 0.00 29 1022.9
20260905120819 91 224 7.0 19.0 0.00 0.00 0.00 29 1022.8
20260905120308 91 240 7.0 14.0 0.00 0.00 0.00 28 1022.8
20260905115821 91 225 7.0 15.0 0.00 0.00 0.00 29 1022.9
20260905115309 91 229 5.0 15.0 0.00 0.00 0.00 29 1023.0
20260905114818 91 264 4.0 15.0 0.00 0.00 0.00 29 1023.0
20260905114326 91 265 8.0 16.0 0.00 0.00 0.00 30 1023.1
20260905113814 91 239 6.0 16.0 0.00 0.00 0.00 30 1023.2
20260905113324 90 278 9.0 16.0 0.00 0.00 0.00 30 1023.2
20260905112812 90 208 8.0 15.0 0.00 0.00 0.00 30 1023.2
20260905112321 91 244 9.0 15.0 0.00 0.00 0.00 31 1023.3
20260905111808 91 222 5.0 14.0 0.00 0.00 0.00 30 1023.2
20260905111321 91 257 4.0 17.0 0.00 0.00 0.00 30 1023.2
20260905110809 90 282 5.0 17.0 0.00 0.00 0.00 30 1023.1
20260905110339 90 267 9.0 14.0 0.00 0.00 0.00 31 1023.1
20260905105827 90 281 6.0 15.0 0.00 0.00 0.00 30 1023.1
20260905105336 90 271 7.0 12.0 0.00 0.00 0.00 31 1023.1
20260905104822 90 284 5.0 14.0 0.00 0.00 0.00 30 1023.2
20260905104310 89 288 6.0 14.0 0.00 0.00 0.00 31 1023.1
20260905103840 90 265 6.0 13.0 0.00 0.00 0.00 30 1023.1
20260905103328 89 293 3.0 13.0 0.00 0.00 0.00 32 1023.1
20260905102816 89 296 8.0 13.0 0.00 0.00 0.00 32 1023.2
20260905102325 88 304 4.0 12.0 0.00 0.00 0.00 33 1023.2
20260905101817 88 300 9.0 12.0 0.00 0.00 0.00 33 1023.3
20260905101326 88 306 6.0 12.0 0.00 0.00 0.00 34 1023.3
20260905100835 88 311 8.0 12.0 0.00 0.00 0.00 34 1023.3
20260905100322 88 308 4.0 11.0 0.00 0.00 0.00 34 1023.3
20260905095811 87 310 6.0 14.0 0.00 0.00 0.00 35 1023.4
20260905095340 87 309 7.0 14.0 0.00 0.00 0.00 35 1023.5
20260905094827 87 284 7.0 11.0 0.00 0.00 0.00 34 1023.5
20260905094315 87 290 6.0 12.0 0.00 0.00 0.00 35 1023.6
20260905093824 86 286 5.0 12.0 0.00 0.00 0.00 36 1023.6
20260905093313 86 293 6.0 12.0 0.00 0.00 0.00 37 1023.7
20260905092821 86 284 6.0 9.0 0.00 0.00 0.00 37 1023.7
20260905092313 85 283 4.0 9.0 0.00 0.00 0.00 38 1023.7
20260905091822 85 284 4.0 8.0 0.00 0.00 0.00 38 1023.8
20260905091310 84 284 3.0 7.0 0.00 0.00 0.00 41 1023.7
20260905090819 83 284 3.0 7.0 0.00 0.00 0.00 43 1023.8
20260905090347 83 284 1.0 3.0 0.00 0.00 0.00 44 1023.9
20260905085815 82 284 1.0 3.0 0.00 0.00 0.00 46 1024.0
20260905085323 80 284 2.0 3.0 0.00 0.00 0.00 47 1023.9
20260905084811 80 284 1.0 2.0 0.00 0.00 0.00 48 1023.9
20260905084319 79 284 1.0 5.0 0.00 0.00 0.00 49 1024.0
20260905083828 79 284 2.0 5.0 0.00 0.00 0.00 49 1024.0
20260905083315 79 284 2.0 5.0 0.00 0.00 0.00 50 1024.1
20260905082823 78 284 2.0 5.0 0.00 0.00 0.00 50 1024.2
20260905082316 77 284 1.0 3.0 0.00 0.00 0.00 52 1024.1
20260905081823 76 284 1.0 4.0 0.00 0.00 0.00 53 1024.1
20260905081312 77 284 1.0 4.0 0.00 0.00 0.00 52 1024.1
20260905080820 76 284 2.0 4.0 0.00 0.00 0.00 53 1024.0
20260905080308 75 284 1.0 4.0 0.00 0.00 0.00 53 1024.0
20260905075838 75 284 2.0 4.0 0.00 0.00 0.00 53 1024.0
20260905075325 74 284 2.0 4.0 0.00 0.00 0.00 56 1024.0
20260905074813 75 284 2.0 4.0 0.00 0.00 0.00 53 1024.0
20260905074321 74 284 1.0 3.0 0.00 0.00 0.00 55 1024.0
20260905073831 74 284 1.0 2.0 0.00 0.00 0.00 55 1024.0
20260905073340 72 284 1.0 2.0 0.00 0.00 0.00 57 1024.1
20260905072847 72 284 1.0 3.0 0.00 0.00 0.00 58 1024.1
20260905072314 71 284 2.0 3.0 0.00 0.00 0.00 60 1024.1
20260905071827 71 284 1.0 4.0 0.00 0.00 0.00 61 1024.2
20260905071336 70 284 1.0 4.0 0.00 0.00 0.00 62 1024.3
20260905070824 69 284 2.0 4.0 0.00 0.00 0.00 62 1024.4
20260905070313 69 284 1.0 3.0 0.00 0.00 0.00 63 1024.3
20260905065820 69 284 2.0 3.0 0.00 0.00 0.00 63 1024.5
20260905065328 68 284 2.0 3.0 0.00 0.00 0.00 64 1024.5
20260905064817 68 284 1.0 3.0 0.00 0.00 0.00 65 1024.5
20260905064325 67 284 1.0 3.0 0.00 0.00 0.00 65 1024.5
20260905063813 67 284 1.0 3.0 0.00 0.00 0.00 66 1024.5
20260905063321 67 284 2.0 4.0 0.00 0.00 0.00 67 1024.4
20260905062809 66 284 1.0 4.0 0.00 0.00 0.00 68 1024.5
20260905062318 66 284 2.0 4.0 0.00 0.00 0.00 67 1024.4
20260905061811 66 284 3.0 4.0 0.00 0.00 0.00 68 1024.4
20260905061318 65 284 2.0 4.0 0.00 0.00 0.00 69 1024.4
20260905060826 65 284 2.0 3.0 0.00 0.00 0.00 70 1024.4
20260905060315 64 284 2.0 3.0 0.00 0.00 0.00 72 1024.4
20260905055824 63 284 2.0 4.0 0.00 0.00 0.00 73 1024.3
20260905055312 63 284 2.0 3.0 0.00 0.00 0.00 73 1024.3
20260905054820 62 284 1.0 3.0 0.00 0.00 0.00 74 1024.3
20260905054309 62 284 2.0 3.0 0.00 0.00 0.00 75 1024.3
20260905053838 61 284 1.0 3.0 0.00 0.00 0.00 76 1024.3
20260905053326 61 284 1.0 3.0 0.00 0.00 0.00 76 1024.3
20260905052814 61 284 2.0 3.0 0.00 0.00 0.00 75 1024.3
20260905052323 61 284 2.0 5.0 0.00 0.00 0.00 75 1024.3
20260905051815 61 284 3.0 5.0 0.00 0.00 0.00 74 1024.2
20260905051343 62 284 2.0 5.0 0.00 0.00 0.00 74 1024.1
20260905050810 62 284 4.0 5.0 0.00 0.00 0.00 73 1024.1
20260905050319 62 284 3.0 6.0 0.00 0.00 0.00 74 1024.0
20260905045827 62 284 2.0 4.0 0.00 0.00 0.00 74 1024.1
20260905045337 62 284 2.0 4.0 0.00 0.00 0.00 74 1024.0
20260905044825 61 284 2.0 4.0 0.00 0.00 0.00 74 1024.0
20260905044312 61 284 2.0 4.0 0.00 0.00 0.00 75 1024.0